Hourly Weather Golcovka

Today, 18 May, Tuesday

Time Temperature Precipitation Wind Pressure Humidity
00:00 +17°C° 0 mm 3 mps 743 mmHg 72%
01:00 +17°C° 0 mm 3 mps 743 mmHg 71%
02:00 +16°C° 0 mm 2 mps 743 mmHg 69%
03:00 +16°C° 0 mm 2 mps 743 mmHg 68%
04:00 +17°C° 0 mm 2 mps 743 mmHg 67%
05:00 +17°C° 0 mm 2 mps 743 mmHg 67%
06:00 +18°C° 0 mm 2 mps 743 mmHg 66%
07:00 +29°C° 0 mm 5 mps 742 mmHg 39%
08:00 +27°C° 0 mm 5 mps 742 mmHg 42%
09:00 +26°C° 0 mm 4 mps 742 mmHg 46%
10:00 +27°C° 0 mm 5 mps 742 mmHg 42%
11:00 +29°C° 0 mm 5 mps 742 mmHg 39%
12:00 +30°C° 0 mm 5 mps 742 mmHg 36%
13:00 +30°C° 0 mm 5 mps 742 mmHg 37%
14:00 +30°C° 0 mm 5 mps 742 mmHg 38%
15:00 +30°C° 0 mm 5 mps 742 mmHg 40%
16:00 +29°C° 0 mm 5 mps 742 mmHg 45%
17:00 +28°C° 0 mm 4 mps 742 mmHg 50%
18:00 +26°C° 0 mm 3 mps 741 mmHg 55%
19:00 +25°C° 0 mm 4 mps 741 mmHg 54%
20:00 +23°C° 0 mm 4 mps 741 mmHg 52%
21:00 +22°C° 0 mm 5 mps 741 mmHg 50%
22:00 +21°C° 0 mm 4 mps 741 mmHg 50%
23:00 +20°C° 0 mm 4 mps 741 mmHg 51%

Tomorrow, 19 May, Wednesday

Time Temperature Precipitation Wind Pressure Humidity
00:00 +20°C° 0 mm 4 mps 741 mmHg 52%
01:00 +19°C° 0 mm 4 mps 741 mmHg 52%
02:00 +18°C° 0 mm 4 mps 741 mmHg 52%
03:00 +17°C° 0 mm 4 mps 741 mmHg 53%
04:00 +18°C° 0 mm 4 mps 741 mmHg 55%
05:00 +18°C° 0 mm 4 mps 741 mmHg 57%
06:00 +18°C° 0 mm 4 mps 741 mmHg 59%
07:00 +21°C° 0 mm 5 mps 741 mmHg 57%
08:00 +23°C° 0 mm 5 mps 740 mmHg 55%
09:00 +26°C° 0 mm 6 mps 740 mmHg 52%
10:00 +27°C° 0 mm 6 mps 740 mmHg 49%
11:00 +28°C° 0 mm 7 mps 740 mmHg 47%
12:00 +29°C° 0 mm 7 mps 740 mmHg 44%
13:00 +30°C° 0 mm 7 mps 740 mmHg 44%
14:00 +30°C° 0 mm 7 mps 740 mmHg 44%
15:00 +30°C° 0 mm 7 mps 740 mmHg 44%
16:00 +29°C° 0 mm 7 mps 740 mmHg 46%
17:00 +28°C° 0 mm 6 mps 740 mmHg 47%
18:00 +27°C° 0 mm 6 mps 740 mmHg 49%
19:00 +26°C° 0 mm 6 mps 740 mmHg 50%
20:00 +24°C° 0 mm 6 mps 740 mmHg 52%
21:00 +23°C° 0 mm 6 mps 740 mmHg 54%
22:00 +23°C° 0 mm 6 mps 740 mmHg 56%
23:00 +22°C° 0 mm 6 mps 740 mmHg 58%

Day after tomorrow, 20 May, Thursday

Time Temperature Precipitation Wind Pressure Humidity
00:00 +21°C° 0 mm 6 mps 740 mmHg 61%
01:00 +20°C° 0.3 mm 5 mps 740 mmHg 67%
02:00 +19°C° 0.3 mm 4 mps 740 mmHg 74%
03:00 +17°C° 0.3 mm 3 mps 740 mmHg 81%
04:00 +18°C° 0.1 mm 3 mps 740 mmHg 80%
05:00 +18°C° 0.1 mm 4 mps 740 mmHg 80%
06:00 +18°C° 0.1 mm 4 mps 740 mmHg 79%
07:00 +19°C° 0 mm 5 mps 740 mmHg 75%
08:00 +20°C° 0 mm 5 mps 740 mmHg 70%
09:00 +22°C° 0 mm 6 mps 740 mmHg 66%
10:00 +21°C° 0.8 mm 6 mps 740 mmHg 71%
11:00 +20°C° 0.8 mm 6 mps 740 mmHg 75%
12:00 +20°C° 0.8 mm 5 mps 740 mmHg 80%
13:00 +17°C° 2.2 mm 5 mps 741 mmHg 85%
14:00 +15°C° 2.2 mm 4 mps 741 mmHg 90%
15:00 +13°C° 2.2 mm 3 mps 741 mmHg 94%
16:00 +14°C° 0.8 mm 3 mps 742 mmHg 91%
17:00 +15°C° 0.8 mm 4 mps 742 mmHg 88%
18:00 +15°C° 0.8 mm 4 mps 742 mmHg 85%
19:00 +15°C° 0 mm 4 mps 742 mmHg 88%
20:00 +14°C° 0 mm 3 mps 742 mmHg 90%
21:00 +13°C° 0 mm 3 mps 742 mmHg 93%
22:00 +13°C° 0 mm 3 mps 742 mmHg 93%
23:00 +12°C° 0 mm 3 mps 742 mmHg 94%

21 May, Friday

Time Temperature Precipitation Wind Pressure Humidity
00:00 +13°C° 0 mm 2 mps 742 mmHg 94%
01:00 +13°C° 0 mm 2 mps 742 mmHg 95%
02:00 +12°C° 0 mm 2 mps 742 mmHg 95%
03:00 +12°C° 0 mm 2 mps 743 mmHg 96%
04:00 +12°C° 0 mm 3 mps 743 mmHg 94%
05:00 +12°C° 0 mm 3 mps 743 mmHg 93%
06:00 +13°C° 0 mm 3 mps 744 mmHg 92%
07:00 +14°C° 0 mm 3 mps 744 mmHg 85%
08:00 +17°C° 0 mm 4 mps 744 mmHg 79%
09:00 +17°C° 0 mm 5 mps 745 mmHg 72%
10:00 +19°C° 0 mm 5 mps 745 mmHg 68%
11:00 +20°C° 0 mm 4 mps 745 mmHg 63%
12:00 +21°C° 0 mm 4 mps 745 mmHg 58%
13:00 +21°C° 0.1 mm 4 mps 745 mmHg 59%
14:00 +22°C° 0.1 mm 4 mps 745 mmHg 59%
15:00 +22°C° 0.1 mm 4 mps 746 mmHg 59%
16:00 +21°C° 0.2 mm 3 mps 746 mmHg 65%
17:00 +20°C° 0.2 mm 3 mps 746 mmHg 71%
18:00 +19°C° 0.2 mm 2 mps 746 mmHg 77%
19:00 +18°C° 0.1 mm 2 mps 746 mmHg 79%
20:00 +18°C° 0.1 mm 1 mps 746 mmHg 82%
21:00 +16°C° 0.1 mm 1 mps 746 mmHg 84%
22:00 +16°C° 0 mm 1 mps 746 mmHg 84%
23:00 +16°C° 0 mm 1 mps 747 mmHg 84%

22 May, Saturday

Time Temperature Precipitation Wind Pressure Humidity
00:00 +16°C° 0 mm 1 mps 747 mmHg 84%
01:00 +15°C° 0 mm 1 mps 747 mmHg 86%
02:00 +15°C° 0 mm 1 mps 747 mmHg 87%
03:00 +14°C° 0 mm 1 mps 747 mmHg 88%
04:00 +15°C° 0 mm 1 mps 747 mmHg 87%
05:00 +15°C° 0 mm 1 mps 747 mmHg 85%
06:00 +16°C° 0 mm 2 mps 747 mmHg 84%
07:00 +18°C° 0 mm 2 mps 747 mmHg 77%
08:00 +20°C° 0 mm 3 mps 747 mmHg 70%
09:00 +22°C° 0 mm 4 mps 747 mmHg 63%
10:00 +23°C° 0 mm 4 mps 747 mmHg 59%
11:00 +25°C° 0 mm 4 mps 747 mmHg 56%
12:00 +26°C° 0 mm 5 mps 747 mmHg 53%
13:00 +26°C° 0 mm 5 mps 747 mmHg 54%
14:00 +26°C° 0 mm 5 mps 747 mmHg 54%
15:00 +26°C° 0 mm 5 mps 747 mmHg 55%
16:00 +18°C° 0 mm 3 mps 744 mmHg 73%
17:00 +17°C° 0 mm 3 mps 743 mmHg 76%
18:00 +16°C° 0 mm 3 mps 743 mmHg 79%
19:00 +14°C° 0 mm 3 mps 743 mmHg 80%
20:00 +14°C° 0 mm 3 mps 743 mmHg 82%
21:00 +14°C° 0 mm 2 mps 743 mmHg 84%
22:00 +13°C° 0.1 mm 2 mps 744 mmHg 86%
23:00 +13°C° 0.1 mm 2 mps 744 mmHg 88%

23 May, Sunday

Time Temperature Precipitation Wind Pressure Humidity
00:00 +13°C° 0.1 mm 2 mps 744 mmHg 90%
01:00 +13°C° 0.1 mm 2 mps 744 mmHg 91%
02:00 +12°C° 0.1 mm 2 mps 744 mmHg 91%
03:00 +12°C° 0.1 mm 2 mps 744 mmHg 92%
04:00 +12°C° 0.1 mm 3 mps 745 mmHg 92%
05:00 +12°C° 0.1 mm 3 mps 745 mmHg 91%
06:00 +13°C° 0.1 mm 3 mps 745 mmHg 91%
07:00 +14°C° 0.2 mm 3 mps 745 mmHg 88%
08:00 +14°C° 0.2 mm 4 mps 745 mmHg 86%
09:00 +15°C° 0.2 mm 4 mps 745 mmHg 83%
10:00 +17°C° 0 mm 4 mps 745 mmHg 81%
11:00 +18°C° 0 mm 4 mps 745 mmHg 79%
12:00 +18°C° 0 mm 4 mps 745 mmHg 77%
13:00 +19°C° 0 mm 4 mps 745 mmHg 74%
14:00 +20°C° 0 mm 4 mps 745 mmHg 71%
15:00 +21°C° 0 mm 4 mps 745 mmHg 68%
16:00 +21°C° 0 mm 4 mps 745 mmHg 71%
17:00 +21°C° 0 mm 4 mps 745 mmHg 74%
18:00 +20°C° 0 mm 4 mps 745 mmHg 77%
19:00 +19°C° 0 mm 4 mps 745 mmHg 81%
20:00 +18°C° 0 mm 4 mps 745 mmHg 85%
21:00 +15°C° 0 mm 4 mps 745 mmHg 89%
22:00 +15°C° 0 mm 4 mps 745 mmHg 89%
23:00 +14°C° 0 mm 3 mps 745 mmHg 88%
Show more